This is the latest recevied weather packets stored in our database for station/object F4NFR-13. If no packets are shown the sender has not sent any weather packets the latest 1 day(s).
| Time | Temp. | Humidity | Pressure | Rain* | Wind** | Luminosity | Snow |
|---|---|---|---|---|---|---|---|
| 1778068523 | 11.11° C | 79% | 1013.4 hPa | 0 mm | - | 156 W/m² | - |
| 1778067919 | 11.11° C | 78% | 1013.4 hPa | 0 mm | - | 293 W/m² | - |
| 1778067314 | 11.11° C | 78% | 1013.4 hPa | 0 mm | - | 206 W/m² | - |
| 1778066709 | 11.11° C | 81% | 1013.4 hPa | 0 mm | - | 224 W/m² | - |
| 1778066407 | 11.11° C | 81% | 1013.4 hPa | 0 mm | - | 218 W/m² | - |
| 1778063685 | 11.11° C | 80% | 1013.4 hPa | 0 mm | - | 212 W/m² | - |
| 1778063685 | 11.11° C | 80% | 1013.4 hPa | 0 mm | - | 212 W/m² | - |
| 1778063080 | 10° C | 80% | 1013.4 hPa | 0 mm | - | 180 W/m² | - |
| 1778062778 | 10° C | 80% | 1013.4 hPa | 0 mm | - | 186 W/m² | - |
| 1778062475 | 10° C | 79% | 1013.4 hPa | 0 mm | - | 177 W/m² | - |
| 1778062173 | 11.11° C | 80% | 1013.4 hPa | 0 mm | - | 184 W/m² | - |
| 1778061870 | 10° C | 81% | 1013.4 hPa | 0 mm | - | 150 W/m² | - |
| 1778061568 | 10° C | 81% | 1013.4 hPa | 0 mm | - | 153 W/m² | - |
| 1778059753 | 11.11° C | 79% | 1013 hPa | 0 mm | - | 140 W/m² | - |
| 1778058846 | 11.11° C | 78% | 1013 hPa | 0 mm | - | 163 W/m² | - |
| 1778058544 | 11.11° C | 78% | 1013 hPa | 0 mm | - | 163 W/m² | - |
| 1778058241 | 11.11° C | 78% | 1013 hPa | 0 mm | - | 152 W/m² | - |
| 1778057939 | 11.11° C | 79% | 1012.7 hPa | 0 mm | - | 135 W/m² | - |
| 1778057334 | 10° C | 79% | 1013 hPa | 0 mm | - | 129 W/m² | - |
| 1778056729 | 10° C | 80% | 1012.7 hPa | 0 mm | - | 108 W/m² | - |
| 1778056124 | 10° C | 79% | 1012.7 hPa | 0 mm | - | 132 W/m² | - |
| 1778055821 | 10° C | 80% | 1012.7 hPa | 0 mm | - | 143 W/m² | - |
| 1778054914 | 10° C | 79% | 1012.7 hPa | 0 mm | - | 127 W/m² | - |
| 1778053402 | 11.11° C | 77% | 1012.3 hPa | 0 mm | - | 231 W/m² | - |
| 1778052797 | 10° C | 79% | 1012.3 hPa | 0 mm | - | 199 W/m² | - |
* Rain latest hour (hover to see other rain measurements)
** Current wind speed in m/s (hover to see current wind gust speed)